Weather History for Dublin, VA

Change the Weather History Date:

Monday, January 14, 2013

  Actual Average (KBCB) Record (KBCB)
Temperature  
Mean Temperature 50 °F 31 °F  
Max Temperature 60 °F 41 °F 67 °F (2007)
Min Temperature 39 °F 21 °F -6 °F (1977)
Degree Days  
Heating Degree Days 16 34  
Month to date heating degree days 476  
Since 1 July heating degree days 2623  
Cooling Degree Days 0 0  
Month to date cooling degree days 0  
Year to date cooling degree days 0  
Moisture  
Dew Point 49 °F    
Average Humidity 97    
Maximum Humidity 100    
Minimum Humidity 82    
Precipitation  
Precipitation 0.22 in 0.11 in 1.22 in (1958)
Month to date precipitation 1.40  
Year to date precipitation 1.40  
Snow  
Snow 0.00 in - - ()
Month to date snowfall  
Since 1 July snowfall  
Snow Depth -    
Sea Level Pressure  
Sea Level Pressure 30.16 in    
Wind  
Wind Speed 4 mph (NW)    
Max Wind Speed 10 mph    
Max Gust Speed -    
Visibility 8 miles    
Events Rain    
T = Trace of Precipitation, MM = Missing Value Source: NWS Daily Summary

Daily Weather History Graph

Daily Weather History Graph

Search for Another Location

Airport:

Trip Planner

Search our weather history database for the weather conditions in past years. The results will help you decide how hot, cold, wet, or windy it might be!

Date:

Astronomy

Jan. 14, 2013 Rise Set
Actual Time 7:35 AM EST 5:28 PM EST
Civil Twilight 7:07 AM EST 5:56 PM EST
Nautical Twilight 6:35 AM EST 6:29 PM EST
Astronomical Twilight 6:03 AM EST 7:00 PM EST
Moon 9:13 AM EST (1/14) 9:06 PM EST (1/14)
Length of Visible Light 10h 49m
Length of Day
9h 53m
Waxing Crescent, 11% of the Moon is Illuminated
Jan 14
Waxing Crescent
Jan 18
First Quarter
Jan 26
Full
Feb 3
Last Quarter
Feb 10
New

Hourly Weather History & Observations

Time (EST) Temp. Windchill Dew Point Humidity Pressure Visibility Wind Dir Wind Speed Gust Speed Precip Events Conditions
12:35 AM 60.8 °F - 55.4 °F 82% 30.10 in 10.0 mi West 4.6 mph - N/A   Overcast
12:55 AM 60.8 °F - 55.4 °F 82% 30.10 in 10.0 mi West 3.5 mph - N/A   Overcast
1:15 AM 59.0 °F - 55.4 °F 88% 30.12 in 10.0 mi West 3.5 mph - N/A   Drizzle
1:35 AM 57.2 °F - 55.4 °F 94% 30.10 in 7.0 mi Calm Calm - N/A Rain Light Rain
1:55 AM 57.2 °F - 57.2 °F 100% 30.12 in 7.0 mi WSW 5.8 mph - N/A Rain Light Rain
2:15 AM 57.2 °F - 57.2 °F 100% 30.12 in 10.0 mi Calm Calm - N/A   Light Drizzle
2:35 AM 57.2 °F - 57.2 °F 100% 30.12 in 10.0 mi SW 3.5 mph - N/A   Overcast
2:55 AM 57.2 °F - 57.2 °F 100% 30.09 in 7.0 mi SE 4.6 mph - N/A Rain Light Rain
3:15 AM 55.4 °F - 55.4 °F 100% 30.09 in 10.0 mi SSW 3.5 mph - 0.01 in   Drizzle
3:35 AM 57.2 °F - 57.2 °F 100% 30.09 in 7.0 mi Calm Calm - N/A   Light Drizzle
3:55 AM 57.2 °F - 57.2 °F 100% 30.09 in 4.0 mi NW 3.5 mph - 0.01 in Rain Light Rain
4:35 AM 55.4 °F - 55.4 °F 100% 30.08 in 3.0 mi Calm Calm - N/A   Drizzle
5:15 AM 55.4 °F - 55.4 °F 100% 30.09 in 7.0 mi WSW 5.8 mph - N/A Rain Light Rain
5:35 AM 55.4 °F - 55.4 °F 100% 30.09 in 7.0 mi West 3.5 mph - N/A Rain Light Rain
5:55 AM 55.4 °F - 55.4 °F 100% 30.10 in 7.0 mi West 3.5 mph - N/A Rain Light Rain
6:15 AM 55.4 °F - 55.4 °F 100% 30.11 in 3.0 mi West 3.5 mph - N/A Rain Light Rain
6:35 AM 55.4 °F - 55.4 °F 100% 30.11 in 3.0 mi Calm Calm - 0.02 in Rain Rain
6:55 AM 55.4 °F - 55.4 °F 100% 30.12 in 4.0 mi Calm Calm - 0.01 in Rain Light Rain
7:15 AM 55.4 °F - 55.4 °F 100% 30.12 in 4.0 mi NW 3.5 mph - N/A Rain Rain
7:35 AM 51.8 °F - 51.8 °F 100% 30.13 in 10.0 mi North 6.9 mph - N/A Rain Light Rain
7:55 AM 51.8 °F - 51.8 °F 100% 30.13 in 10.0 mi NNW 8.1 mph - N/A Rain Light Rain
8:15 AM 48.2 °F - 48.2 °F 100% 30.16 in 10.0 mi NW 8.1 mph - N/A Rain Light Rain
8:35 AM 48.2 °F - 48.2 °F 100% 30.17 in 10.0 mi NNW 5.8 mph - N/A Rain Light Rain
8:55 AM 48.2 °F - 48.2 °F 100% 30.17 in 10.0 mi NW 6.9 mph - N/A Rain Light Rain
9:15 AM 48.2 °F - 48.2 °F 100% 30.19 in 10.0 mi NW 8.1 mph - N/A Rain Light Rain
9:35 AM 48.2 °F - 46.4 °F 93% 30.17 in 10.0 mi North 5.8 mph - N/A   Overcast
9:55 AM 48.2 °F - 46.4 °F 93% 30.19 in 10.0 mi NW 9.2 mph - N/A   Light Drizzle
10:15 AM 48.2 °F - 46.4 °F 93% 30.19 in 10.0 mi NNW 3.5 mph - N/A   Overcast
10:35 AM 48.2 °F - 46.4 °F 93% 30.21 in 10.0 mi NW 5.8 mph - N/A   Overcast
10:55 AM 48.2 °F - 46.4 °F 93% 30.20 in 10.0 mi NW 3.5 mph - N/A   Overcast
11:15 AM 48.2 °F - 46.4 °F 93% 30.19 in 10.0 mi NNW 4.6 mph - N/A   Overcast
11:35 AM 48.2 °F - 46.4 °F 93% 30.19 in 10.0 mi NW 5.8 mph - N/A   Overcast
11:55 AM 48.2 °F - 46.4 °F 93% 30.18 in 10.0 mi NW 6.9 mph - N/A   Overcast
12:15 PM 48.2 °F - 46.4 °F 93% 30.18 in 10.0 mi NW 6.9 mph - N/A   Overcast
12:35 PM 48.2 °F - 46.4 °F 93% 30.18 in 10.0 mi NW 5.8 mph - N/A   Overcast
12:55 PM 48.2 °F - 46.4 °F 93% 30.17 in 10.0 mi NW 4.6 mph - N/A Rain Light Rain
1:15 PM 48.2 °F - 46.4 °F 93% 30.15 in 10.0 mi Calm Calm - N/A Rain Rain
1:35 PM 48.2 °F - 46.4 °F 93% 30.15 in 10.0 mi Calm Calm - 0.01 in Rain Light Rain
1:55 PM 48.2 °F - 46.4 °F 93% 30.15 in 10.0 mi Calm Calm - 0.01 in   Light Drizzle
2:15 PM 48.2 °F - 46.4 °F 93% 30.13 in 10.0 mi Calm Calm - N/A   Light Drizzle
2:35 PM 48.2 °F - 46.4 °F 93% 30.14 in 10.0 mi Calm Calm - N/A   Mostly Cloudy
2:55 PM 48.2 °F - 46.4 °F 93% 30.14 in 10.0 mi Calm Calm - N/A Rain Light Rain
3:15 PM 48.2 °F - 46.4 °F 93% 30.15 in 10.0 mi Calm Calm - N/A   Overcast
3:35 PM 48.2 °F - 46.4 °F 93% 30.14 in 10.0 mi Calm Calm - N/A   Overcast
3:55 PM 48.2 °F - 46.4 °F 93% 30.17 in 10.0 mi West 4.6 mph - N/A Rain Light Rain
4:15 PM 48.2 °F - 46.4 °F 93% 30.17 in 10.0 mi Calm Calm - N/A Rain Light Rain
4:35 PM 48.2 °F - 48.2 °F 100% 30.18 in 10.0 mi Calm Calm - N/A   Drizzle
5:15 PM 48.2 °F - 48.2 °F 100% 30.18 in 10.0 mi Calm Calm - N/A Rain Rain
5:35 PM 48.2 °F - 48.2 °F 100% 30.18 in 10.0 mi Calm Calm - N/A Rain Light Rain
5:55 PM 48.2 °F - 48.2 °F 100% 30.18 in 10.0 mi Calm Calm - N/A Rain Light Rain
6:15 PM 48.2 °F - 48.2 °F 100% 30.20 in 10.0 mi Calm Calm - 0.01 in Rain Light Rain
6:35 PM 48.2 °F - 48.2 °F 100% 30.21 in 5.0 mi Calm Calm - 0.03 in Rain Heavy Rain
6:55 PM 48.2 °F - 48.2 °F 100% 30.20 in 10.0 mi NNE 3.5 mph - N/A Rain Rain
7:15 PM 46.4 °F 45.2 °F 46.4 °F 100% 30.21 in 4.0 mi North 3.5 mph - 0.04 in Rain Heavy Rain
7:35 PM 46.4 °F 45.2 °F 46.4 °F 100% 30.20 in 7.0 mi NNE 3.5 mph - 0.03 in Rain Rain
7:55 PM 46.4 °F 44.3 °F 46.4 °F 100% 30.21 in 7.0 mi NW 4.6 mph - 0.02 in Rain Rain
8:15 PM 46.4 °F 44.3 °F 46.4 °F 100% 30.22 in 10.0 mi NW 4.6 mph - 0.02 in Rain Light Rain
8:35 PM 44.6 °F 40.7 °F 44.6 °F 100% 30.21 in 10.0 mi NNW 6.9 mph - 0.02 in Rain Rain
8:55 PM 44.6 °F 40.2 °F 44.6 °F 100% 30.23 in 10.0 mi NW 8.1 mph - 0.01 in Rain Light Rain
9:15 PM 42.8 °F 38.6 °F 42.8 °F 100% 30.23 in 5.0 mi NNW 6.9 mph - 0.01 in Rain Light Rain
9:35 PM 42.8 °F 37.5 °F 42.8 °F 100% 30.24 in 4.0 mi NW 9.2 mph - 0.02 in Rain Rain
9:55 PM 41.0 °F 35.2 °F 41.0 °F 100% 30.23 in 7.0 mi NNW 9.2 mph - N/A Rain Light Rain
10:15 PM 41.0 °F 34.7 °F 41.0 °F 100% 30.24 in 7.0 mi NW 10.4 mph - 0.01 in Rain Rain
10:35 PM 39.2 °F 33.6 °F 39.2 °F 100% 30.25 in 3.0 mi NW 8.1 mph - 0.02 in Rain Rain
10:55 PM 39.2 °F 33.6 °F 39.2 °F 100% 30.24 in 5.0 mi NNW 8.1 mph - 0.01 in Rain Rain
11:15 PM 39.2 °F 35.0 °F 39.2 °F 100% 30.26 in 5.0 mi NW 5.8 mph - 0.02 in Rain Rain
11:35 PM 39.2 °F - 39.2 °F 100% 30.24 in 2.5 mi Calm Calm - 0.05 in Rain Rain
11:55 PM 39.2 °F - 39.2 °F 100% 30.23 in 10.0 mi Calm Calm - N/A Rain Light Rain